星链-11712 (STARLINK-11712)

导读

STARLINK-11712是美国于2025年5月24日发射的星链系列卫星,隶属于SpaceX星链星座网络。该卫星承担低轨互联网组网任务,为全球偏远地区、海上与航空场景提供宽带互联网接入服务,进一步扩充星链星座规模,提升系统覆盖密度与通信服务能力。

基本信息
目录编号:
64135
目录名称:
STARLINK-11712
国际标识:
2025-111N
轨道中心:
EARTH
卫星名称:
星链-11712
卫星全名:
星链-11712 (STARLINK-11712)
卫星状态:
在轨 (已飞行469 天)
发射日期:
2025-05-24 UTC
国别 :
美国 (US)
星等 :
--
轨道信息
数据来源 国际轨道数据
星历时间: 2026-09-04T22:32:47+0800
20小时前
查看轨道信息
半长轴: 6734.615km
偏心率: 0.0002051
轨道倾角: 43.000°
近地点辐角 281.898°
升交点赤经 335.789°
平近点角 78.165°
近地点: 355.096km
远地点: 357.86km
周期: 91.670分钟
每日圈数: 15.70846
详细信息
固有亮度:
5
最大亮度:
2.5
卫星平台:
Starlink V1.0
覆盖范围:
全球
运营商:
太空探索技术公司
运营商所在国:
美国
制造商(研发单位):
太空探索技术公司
制造商所在国:
美国
使用方式:
暂无
卫星简介
Starlink 计划是 SpaceX 推出的全球卫星互联网项目,通过发射低轨道卫星,为全球尤其是偏远地区提供高速、低延迟的互联网服务。自 2019 年起,Starlink 已部署数千颗卫星,旨在缩小全球数字鸿沟,推动互联网普及。该项目还为军事、航空等行业提供通信支持,带来广泛经济效益。
2D轨道图
3D轨道图
轨道高度分析图
轨道倾角分析图
轨道综合分析图
查看轨道综合分析图